RH
99 100 100 100 100 99 100 98 99 99 98 100 99 98 99 99 99 98 99 99 98 99 93 38 9 6 4 3 3 3 4 9 11 16 24 28 59 58 64 64 66 70 75 82 75 91 70 65 77 79 91 97 100 96
97 98 99 99 99 99 100 100 100 100 100 99 99 99 99 99 99 99 99 98 97 96 61 19 8 5 4 3 3 3 4 6 7 12 22 31 42 56 59 71 55 72 64 82 79 80 76 87 67 78 94 98 96 92
59 78 94 99 99 100 100 100 100 99 99 99 99 99 98 99 99 99 99 98 97 94 70 27 8 5 4 3 3 3 5 5 8 13 19 28 38 52 62 60 59 68 79 83 85 81 92 73 69 96 99 99 94 86
37 88 91 98 100 99 99 99 94 100 99 99 99 99 98 98 98 98 98 97 97 97 33 11 6 5 4 3 3 4 5 7 10 16 22 29 40 50 60 59 72 78 78 85 85 82 67 60 95 95 98 100 89 76
43 41 70 98 100 97 99 98 98 100 99 99 98 99 97 97 98 98 97 97 96 61 8 8 5 4 4 3 4 5 6 9 13 20 29 39 46 56 66 82 74 78 90 89 72 53 56 87 100 99 98 90 86 60
51 52 78 96 99 98 100 99 98 99 99 98 97 98 98 98 97 97 97 96 94 56 32 3 5 4 4 4 5 6 9 12 16 23 50 66 81 92 92 87 81 88 73 48 49 50 61 86 98 98 98 84 88 69
71 63 57 72 93 100 98 95 98 92 99 99 99 99 98 96 98 97 96 94 95 62 4 4 4 4 4 5 6 8 12 15 23 38 70 90 95 90 92 83 92 76 47 49 51 51 59 88 96 98 97 82 84 84
64 71 58 75 96 99 97 94 64 98 99 99 98 98 97 96 98 97 96 95 46 6 3 3 4 4 6 6 7 10 14 18 34 60 77 85 86 90 84 84 83 51 52 55 55 49 54 77 94 94 94 82 88 91
56 78 60 74 92 99 99 97 65 98 98 98 98 98 97 96 97 96 96 89 68 5 3 3 3 4 5 6 9 12 15 27 52 72 80 77 84 79 82 87 77 52 60 59 58 51 54 75 95 95 96 86 85 90
61 83 66 86 83 96 98 87 98 98 98 98 98 98 96 96 96 96 92 79 11 7 4 3 4 4 4 8 10 14 27 48 76 71 71 73 72 78 86 82 78 63 69 70 61 58 55 79 100 99 95 85 75 81
68 87 81 91 80 99 89 83 99 79 96 98 97 98 96 96 96 96 57 59 11 4 3 3 4 4 6 7 9 16 23 48 68 72 76 81 70 78 83 76 76 79 78 80 81 65 54 53 83 95 94 88 75 80
81 91 85 83 82 91 98 100 97 98 98 97 97 97 96 95 95 88 70 8 3 3 3 3 3 4 5 8 12 23 32 46 69 78 80 76 64 75 79 74 72 74 85 84 86 87 67 53 60 90 92 92 80 74
84 100 87 63 96 99 98 98 97 95 98 97 96 96 95 94 92 42 4 3 2 2 3 3 4 4 7 9 13 22 44 63 71 82 75 60 58 69 72 71 71 73 87 89 88 92 88 69 53 73 93 92 89 74
100 99 72 53 93 98 89 96 98 97 96 96 96 96 94 93 80 32 27 17 2 2 2 3 4 5 6 9 13 21 40 57 70 75 58 52 36 61 74 79 80 84 88 90 91 93 96 91 71 57 82 91 92 81
100 85 59 84 98 95 97 98 97 97 96 95 95 95 95 77 42 33 9 2 2 2 3 3 5 4 6 8 13 18 32 53 56 48 36 35 40 66 75 80 83 86 88 91 93 93 95 98 93 72 61 85 92 88
97 80 84 98 96 99 97 97 96 96 96 96 95 94 79 54 45 27 2 2 2 3 3 4 4 4 5 6 9 12 18 16 15 22 27 27 45 63 69 71 75 78 83 87 90 93 96 98 100 94 74 63 82 88
68 95 98 96 98 98 97 96 96 97 95 95 94 87 61 33 10 3 2 2 3 3 3 4 4 4 5 6 8 10 11 14 16 20 27 39 49 54 54 52 53 55 57 64 74 84 93 96 98 100 94 73 63 81
92 86 97 97 99 97 96 96 96 96 93 78 89 91 43 16 3 2 3 3 3 4 4 4 4 5 5 5 6 8 10 14 20 25 30 36 40 43 46 48 48 49 50 52 58 64 72 90 98 99 99 92 73 70
100 98 98 98 97 96 95 96 96 92 86 95 92 65 24 5 3 3 3 4 4 4 5 5 5 6 6 7 8 9 13 20 23 26 34 40 41 42 44 46 48 52 54 52 50 50 59 69 88 98 100 100 90 72
98 98 97 96 96 96 96 94 95 96 96 94 90 45 6 3 3 4 4 4 5 5 6 6 7 8 9 10 11 13 19 23 26 32 40 45 48 50 52 55 56 55 56 56 54 52 51 56 71 87 98 100 99 90
97 97 96 96 96 96 95 96 96 94 95 83 22 5 4 4 4 4 4 5 5 6 7 7 8 10 12 13 15 20 24 29 36 42 47 53 59 61 62 61 61 64 65 63 63 59 55 53 58 79 94 100 100 100
97 96 96 96 96 97 96 94 93 90 67 34 13 4 4 4 4 5 5 6 6 6 7 8 11 13 15 17 20 22 24 28 35 41 50 59 66 69 72 71 69 69 71 71 70 66 62 60 58 63 88 99 100 100
96 96 96 95 96 95 94 96 93 94 55 21 8 5 5 4 5 6 6 6 6 7 8 10 12 15 19 21 23 24 27 31 39 49 59 66 73 76 73 73 71 73 75 78 76 70 64 63 62 64 75 100 100 100
96 96 96 95 93 94 95 84 72 71 37 10 7 5 5 5 5 6 6 6 7 8 10 12 15 19 22 24 25 27 30 34 42 52 60 62 72 76 72 70 73 76 83 85 80 72 66 64 64 67 82 100 100 100
97 94 94 95 89 80 89 66 42 38 12 6 5 5 5 5 5 5 5 6 7 9 11 14 20 24 26 28 29 30 32 36 42 48 58 60 68 76 79 83 88 92 90 82 75 71 69 67 65 71 89 100 100 100
94 94 83 73 61 62 93 91 60 28 8 6 5 5 5 5 5 6 5 7 8 9 13 18 24 27 30 33 33 35 38 42 47 50 57 64 75 78 74 70 71 73 74 74 75 75 72 69 70 82 98 100 100 100
81 70 55 60 78 79 90 92 69 16 5 5 4 4 5 5 5 6 7 8 10 13 17 22 26 30 34 35 37 44 50 53 56 59 63 65 66 58 52 52 56 63 70 73 75 74 72 73 80 93 100 100 100 100
69 87 48 88 95 72 58 79 22 6 5 4 4 5 5 6 7 8 8 9 12 14 18 21 24 32 34 38 45 51 56 61 65 65 67 65 56 57 60 57 52 47 49 59 68 72 75 79 92 98 100 100 100 100
93 95 91 97 79 28 7 6 6 5 5 4 4 5 6 7 7 8 10 11 13 15 16 21 27 32 36 42 48 55 63 70 72 74 75 72 76 82 77 70 61 56 58 65 71 77 83 91 100 100 100 100 100 100
88 58 35 29 9 7 6 6 5 5 6 6 6 7 7 8 10 10 11 12 14 16 20 24 28 33 39 45 51 59 70 77 82 91 95 97 98 90 84 76 74 75 77 79 83 91 99 100 100 100 100 100 100 100
14 16 9 8 7 7 7 6 7 8 7 8 9 9 10 11 11 12 14 15 15 17 22 27 32 35 41 48 54 68 81 89 96 100 100 98 93 90 83 85 88 86 91 98 100 100 100 100 100 100 100 100 100 100
7 7 7 8 8 8 9 10 9 9 12 12 11 12 13 13 13 16 16 17 18 21 24 29 32 38 44 48 60 77 90 95 95 94 93 92 89 90 93 93 92 94 97 100 100 100 100 100 100 100 100 100 100 100
8 8 9 9 9 10 11 11 11 13 14 14 13 13 14 14 15 17 19 18 18 22 26 30 36 43 48 55 64 78 86 80 79 82 86 94 96 90 89 94 94 94 93 98 100 100 100 100 100 100 100 100 100 100
Wind_Speed
46 42 39 44 40 37 34 32 34 38 38 31 32 39 31 24 26 26 26 26 22 20 17 16 15 14 13 12 11 12 13 11 9 6 5 5 6 7 8 9 7 6 4 4 4 5 6 11 27 20 27 27 27 26
53 49 46 42 40 41 38 36 38 36 34 41 33 29 31 29 30 30 29 25 20 14 14 16 17 14 12 11 10 12 12 10 7 7 7 7 9 9 9 4 7 6 7 5 7 8 19 24 28 25 24 25 26 26
46 50 53 45 39 36 37 36 36 30 27 29 37 37 31 31 31 30 28 22 18 13 13 14 13 13 11 9 9 12 11 11 10 10 10 10 11 10 7 8 10 9 9 13 15 12 19 26 24 23 21 22 22 24
42 46 48 45 39 35 33 32 33 35 30 39 35 29 29 29 28 27 24 20 15 10 13 14 13 13 11 8 11 12 11 11 9 9 9 10 12 9 9 9 10 11 12 14 17 18 24 21 23 22 19 20 21 20
43 42 48 40 41 41 37 37 36 25 25 25 28 25 21 22 24 27 24 16 11 9 12 13 13 12 10 9 12 11 12 10 10 9 8 7 9 8 9 10 9 8 12 13 18 21 22 20 21 21 19 18 20 21
43 39 38 42 41 40 42 39 24 26 30 28 31 29 23 24 26 25 20 14 9 10 14 12 11 9 9 9 10 12 11 10 10 9 7 7 6 7 5 7 10 10 12 16 19 20 20 19 19 19 18 18 19 19
43 40 37 36 41 35 36 32 22 24 19 26 28 23 24 28 24 22 15 12 11 7 13 8 6 11 9 10 11 11 10 10 10 8 6 6 6 8 11 13 8 10 14 16 18 20 18 18 17 18 17 17 18 19
43 40 36 35 37 36 38 29 28 28 23 30 30 22 23 27 24 23 17 9 3 10 11 6 6 8 9 9 11 11 10 10 10 7 6 6 8 8 5 4 7 12 13 15 18 20 19 17 17 18 18 17 17 18
40 38 35 35 35 34 28 27 28 22 31 33 27 28 25 26 22 16 13 8 7 12 7 8 7 5 6 9 10 10 10 8 7 7 6 6 7 5 6 6 11 12 13 15 17 19 19 18 17 18 17 17 17 16
39 37 34 32 33 26 25 28 30 24 27 29 29 29 28 22 19 14 8 4 10 15 14 10 9 7 7 8 7 7 4 4 4 6 5 7 9 8 6 8 11 12 13 14 15 17 17 17 16 17 16 16 16 15
38 34 33 31 32 30 25 25 29 29 36 37 35 32 24 20 16 10 7 7 9 7 9 12 9 7 7 6 7 4 3 3 4 4 3 4 5 6 6 9 11 13 13 14 15 16 18 16 14 14 15 15 15 15
36 32 32 32 33 34 27 23 27 29 31 33 32 22 21 18 8 8 7 8 8 7 9 9 6 5 4 4 3 3 4 3 5 4 3 4 4 6 9 11 14 15 14 14 14 16 17 18 16 15 15 15 15 14
35 32 32 33 29 30 30 26 36 27 33 31 24 21 13 12 9 8 11 8 7 7 7 5 4 3 2 2 3 2 3 4 4 3 4 4 7 9 14 19 19 14 13 13 14 15 16 17 18 15 15 15 15 15
33 33 32 34 33 35 32 31 34 30 28 28 21 17 11 8 12 11 11 10 8 7 5 3 2 2 1 1 1 3 4 4 4 4 4 8 12 13 12 12 11 11 11 12 14 15 15 16 18 17 15 14 14 15
34 34 31 32 34 27 26 32 31 27 27 23 11 11 17 13 16 15 12 11 9 7 4 3 1 2 1 2 2 3 3 4 5 5 9 13 12 11 11 11 11 11 12 12 13 14 15 16 17 18 16 15 14 14
33 28 34 30 27 26 27 32 30 28 27 18 12 9 19 19 18 15 14 12 9 7 4 2 1 1 3 2 3 4 4 4 6 11 13 13 11 11 12 13 13 13 13 14 14 15 15 15 16 17 17 16 14 13
39 39 37 30 32 42 41 32 30 29 24 12 15 18 20 19 16 16 15 13 10 7 4 2 1 2 3 4 5 6 5 8 9 9 9 8 9 10 12 12 12 13 14 14 15 15 15 16 15 15 16 17 17 15
38 34 32 40 40 45 33 32 28 20 15 16 21 23 21 19 19 17 15 13 10 6 4 2 2 3 4 4 7 8 8 8 8 9 9 9 10 10 11 12 12 14 15 15 16 16 15 15 15 15 15 16 16 16
39 38 36 45 44 37 34 35 29 16 19 23 26 25 22 21 21 18 15 12 9 6 4 2 3 4 5 6 7 8 9 10 10 10 10 10 10 11 11 12 13 14 15 15 16 16 16 15 14 14 14 15 15 15
40 35 43 48 41 38 33 20 28 12 24 28 28 25 23 21 19 17 15 12 9 6 5 3 3 5 6 6 6 8 10 10 12 13 13 13 14 14 15 15 14 15 16 16 17 16 16 17 16 15 14 13 14 15
40 42 50 46 44 40 20 16 20 15 26 27 26 24 23 22 19 17 14 12 9 6 4 5 6 6 5 6 7 8 10 12 14 15 15 15 15 15 16 17 17 16 16 17 17 18 17 16 16 16 15 14 13 13
38 45 45 40 36 29 16 17 18 23 24 27 27 25 23 22 20 17 14 12 9 8 7 7 6 6 7 7 6 8 11 13 13 14 14 14 15 17 18 19 18 16 16 17 18 19 19 17 16 16 15 14 13 13
39 43 42 37 20 19 13 21 22 28 18 26 28 25 22 21 19 17 13 12 11 9 8 8 8 8 7 6 8 11 13 14 14 15 16 17 18 20 21 21 18 15 15 18 19 19 19 18 17 16 16 14 13 13
42 42 31 25 14 12 23 24 27 27 21 27 27 22 20 22 20 18 17 13 11 10 9 8 9 8 7 9 11 14 16 15 16 18 20 20 21 22 21 18 15 14 15 19 21 20 19 18 17 16 15 14 13 12
30 24 13 11 13 15 25 27 27 26 20 28 26 24 17 19 16 17 16 11 13 11 9 10 9 8 9 11 13 15 16 17 18 18 20 20 18 16 15 15 16 18 20 21 20 19 18 17 16 15 14 13 12 12
14 8 10 14 16 19 18 28 26 24 17 24 26 20 15 16 14 8 9 8 10 10 11 10 9 10 12 13 15 16 16 17 18 18 18 17 16 16 17 18 19 18 18 18 17 16 16 16 15 14 13 12 11 11
7 6 13 19 19 17 19 28 21 22 17 17 21 20 13 7 7 7 5 5 8 10 11 11 11 12 14 15 16 16 17 17 17 16 16 15 15 15 15 16 16 16 17 17 16 16 15 15 14 13 12 12 10 10
9 12 17 18 19 18 16 22 19 18 17 11 16 13 7 7 5 4 5 7 8 10 11 11 12 14 15 16 17 17 17 16 15 15 14 13 12 13 15 17 18 19 19 19 18 17 16 14 13 13 12 11 11 10
12 15 16 19 19 16 13 19 15 15 15 14 13 12 9 7 5 4 5 7 8 9 10 12 13 14 15 17 17 17 16 15 14 14 13 14 16 18 20 22 23 22 21 19 18 16 16 13 12 13 12 11 10 9
16 17 17 17 15 12 13 14 11 12 12 11 9 8 6 4 3 4 7 8 9 10 10 13 14 15 16 17 17 16 14 14 14 14 16 18 20 23 25 25 23 21 20 18 16 15 14 12 11 11 12 10 9 9
15 15 15 16 14 12 14 14 13 12 11 10 8 7 4 2 3 7 10 11 11 11 13 14 14 16 17 17 16 14 13 14 15 16 19 22 24 26 24 23 22 20 17 14 13 12 10 9 9 9 9 9 9 8
13 15 17 19 16 16 15 14 13 12 10 9 7 5 2 3 6 9 12 12 11 13 14 15 15 16 16 16 15 13 13 15 16 19 21 23 23 23 23 21 18 15 13 12 11 10 8 8 8 9 9 10 9 8
15 16 16 18 17 17 15 14 13 11 9 7 7 6 5 6 9 12 13 12 13 14 15 15 15 16 15 15 14 14 14 15 17 19 21 23 24 22 18 15 14 13 12 11 9 9 8 8 8 9 9 10 10 9
Wind_Direction
241 243 245 241 243 246 250 260 262 263 261 268 273 283 280 284 281 281 286 287 287 286 288 288 279 280 284 293 300 314 319 314 306 293 272 278 248 248 252 253 253 241 230 228 246 250 275 300 316 313 305 310 313 318
249 248 246 244 244 248 248 252 258 256 259 265 264 273 278 279 286 277 282 276 278 278 282 283 279 273 273 286 298 315 313 314 300 289 290 270 264 265 260 264 256 252 229 250 264 256 283 299 311 310 311 314 318 322
244 248 248 247 241 243 247 249 255 256 256 264 267 271 280 282 279 278 273 272 268 274 274 261 268 264 272 279 299 314 317 314 306 299 291 277 260 259 256 255 257 267 280 284 296 300 296 307 309 311 314 314 319 322
245 244 247 247 244 250 247 255 266 249 256 260 270 271 279 277 275 275 263 260 261 261 258 264 262 262 271 278 307 317 323 317 312 305 293 276 261 254 261 264 267 287 297 302 301 304 309 316 311 313 320 318 319 321
240 241 242 248 246 254 253 252 259 262 267 265 275 278 280 279 273 268 261 250 244 257 265 274 262 258 255 279 311 317 321 320 314 305 295 275 263 264 272 276 283 304 305 306 306 312 313 314 311 314 319 320 322 325
237 239 239 242 243 250 247 255 246 249 260 278 272 268 276 265 265 265 245 256 242 236 261 262 254 242 250 287 304 315 317 313 305 303 289 268 265 269 270 271 302 308 314 315 315 318 318 315 316 319 323 325 327 329
235 236 237 238 243 248 256 249 241 259 258 253 272 278 278 263 266 249 239 235 226 249 253 254 233 226 248 294 299 309 304 301 298 295 272 266 275 279 279 281 295 314 318 319 322 324 324 317 318 319 325 327 331 334
230 234 234 236 240 241 246 236 239 239 250 259 264 266 264 261 256 245 242 213 191 248 249 241 225 221 273 281 296 297 294 294 285 278 267 275 280 280 263 262 304 319 323 327 329 331 328 324 324 326 329 332 333 334
224 228 228 230 239 239 217 234 233 246 253 264 253 249 264 253 245 232 219 188 224 231 225 234 222 257 262 288 287 289 286 274 271 257 261 278 276 254 261 276 311 320 327 334 333 336 334 330 329 327 329 329 330 332
220 223 222 227 227 242 216 226 227 243 253 254 243 251 253 240 225 214 200 200 236 241 231 237 232 275 286 288 286 287 267 254 255 253 270 265 271 263 257 292 309 315 324 332 334 339 339 332 329 325 325 325 327 335
214 217 219 224 224 220 219 221 241 245 252 242 236 241 241 214 187 185 167 199 217 215 212 212 243 281 290 284 275 266 277 256 248 250 264 261 273 257 258 310 315 314 317 324 333 339 345 344 333 329 329 329 329 333
206 208 218 222 221 205 220 224 235 253 258 248 236 239 216 185 179 184 185 205 204 216 198 218 256 275 286 277 251 246 241 239 244 240 249 249 281 262 278 305 320 314 311 316 325 336 343 348 345 337 335 333 332 334
201 203 216 223 211 216 228 228 235 255 242 227 221 201 184 197 185 189 198 184 195 197 203 228 232 235 200 298 239 222 218 233 262 241 244 258 310 299 299 301 302 299 304 310 319 328 337 342 347 344 338 336 334 333
192 208 213 213 216 222 225 230 235 238 216 216 203 192 199 193 188 184 185 201 202 190 187 199 211 179 200 197 220 218 232 244 243 240 250 297 314 313 312 315 309 304 306 310 316 322 329 335 341 346 341 339 336 333
195 209 203 211 213 227 232 244 225 211 214 207 194 204 197 177 169 175 185 183 176 166 158 173 145 146 81 179 216 252 226 234 235 255 295 312 312 308 311 317 317 314 313 314 316 317 320 326 333 339 344 339 339 335
200 200 207 214 212 216 228 224 211 207 211 202 199 176 162 163 167 177 179 172 163 152 150 142 114 167 185 244 224 229 238 241 282 303 306 306 298 297 304 309 310 312 312 313 313 313 314 316 321 329 336 340 337 338
195 195 201 208 211 214 214 203 197 199 203 197 176 164 168 170 177 176 171 164 156 154 142 147 138 166 282 223 238 233 259 296 301 302 300 296 296 301 306 310 314 315 316 315 314 312 310 312 313 319 326 334 338 337
195 204 214 207 213 202 196 194 189 195 189 183 178 167 171 175 176 173 168 162 159 158 146 143 211 260 243 252 280 287 292 287 286 293 295 296 301 307 312 316 319 320 318 314 311 311 311 311 311 313 318 325 332 335
201 196 201 210 205 198 187 186 194 186 189 183 166 166 177 180 176 173 169 166 166 166 172 222 216 268 293 294 292 292 285 278 288 295 296 300 304 310 314 318 323 326 323 319 316 312 308 307 308 309 311 315 322 329
216 211 207 195 193 191 188 189 190 176 174 168 163 178 185 180 178 177 174 176 182 190 208 229 276 298 297 290 294 287 279 289 296 296 298 301 302 304 305 307 311 317 322 322 320 316 312 306 304 304 304 306 312 321
198 198 191 187 188 189 187 177 178 180 167 168 179 182 183 183 183 184 184 188 198 210 236 267 272 278 291 301 286 281 294 297 296 299 302 303 304 304 304 304 303 302 310 317 319 316 315 310 303 299 300 301 305 314
201 192 181 183 183 189 193 192 186 174 171 175 182 189 186 188 191 192 196 206 215 228 251 262 269 285 295 284 291 308 306 300 303 307 308 307 309 312 313 310 303 297 299 308 314 312 311 308 304 297 294 293 295 302
188 180 181 180 178 185 179 179 170 170 171 186 189 188 193 196 200 201 209 222 227 240 254 264 275 286 283 292 306 304 300 301 304 306 309 308 309 312 312 310 303 293 295 305 311 311 308 305 302 296 290 286 288 292
180 173 169 177 181 186 175 171 173 175 179 184 187 191 199 203 205 213 227 233 241 248 261 271 282 284 298 307 303 300 300 303 302 302 305 308 309 308 307 305 301 297 301 306 308 308 306 304 300 295 288 283 282 286
175 179 179 181 181 179 177 173 178 183 191 188 188 195 202 204 210 225 238 246 247 247 270 284 281 294 305 304 301 299 303 303 303 304 306 310 308 308 307 306 302 301 302 303 303 303 303 301 298 293 287 279 277 279
167 162 175 178 177 179 183 184 183 191 197 192 195 196 201 206 218 235 244 251 243 251 277 287 292 298 303 304 300 302 303 303 304 305 306 306 306 307 308 307 306 304 302 302 302 302 302 300 297 290 283 276 272 272
155 166 179 180 184 189 190 185 186 194 195 197 201 198 197 206 223 237 242 244 252 268 283 294 298 297 302 302 301 304 305 304 305 305 306 307 308 311 314 317 317 314 310 306 303 302 301 299 294 287 279 274 269 269
187 182 178 190 182 170 183 186 191 192 195 193 188 186 192 199 200 233 264 271 279 285 292 299 299 301 303 303 306 308 306 306 306 306 307 310 314 320 322 323 323 320 314 307 302 298 295 293 286 279 273 269 266 264
179 170 164 171 171 183 183 186 185 189 186 185 188 198 204 215 236 261 293 299 297 298 303 303 302 303 304 306 307 307 306 305 306 307 307 308 313 317 319 319 318 314 309 304 300 294 290 286 276 273 270 264 262 261
165 163 169 178 186 189 186 178 173 170 169 175 184 187 186 202 259 311 320 317 313 311 308 304 304 305 305 307 307 307 306 305 307 309 311 313 315 317 319 320 318 314 310 306 300 293 287 281 272 264 263 263 263 260
170 174 179 179 175 169 166 164 163 164 169 172 175 176 183 262 311 325 327 323 315 309 308 308 307 306 307 308 308 308 307 307 308 311 313 314 316 317 320 320 318 315 313 307 299 293 287 280 275 266 259 258 258 260
174 179 177 172 163 161 166 167 166 169 172 181 187 191 259 301 310 323 326 318 309 307 310 310 309 308 309 309 309 308 306 308 312 315 317 318 320 321 322 321 318 318 316 309 300 292 282 271 268 263 258 256 258 259
170 170 173 171 170 174 176 180 183 187 198 206 217 242 274 290 307 320 323 315 308 309 311 309 308 311 313 312 310 310 311 314 316 319 321 322 322 323 326 321 322 322 324 322 309 291 275 266 265 265 262 256 252 255